GW2214 Weather Reports


Display with metric or nautical units.
time (UTC)temp
F
wind
direction
speed
MPH
gust
MPH
rain 1hr
in
rain 24hr
in
rain mn
in
humidity
%
barometer
mb
20260506201540 65 227 0.0 0.0 0.00 0.00 0.00 84 995.0
20260506200039 64 209 0.0 0.0 0.00 0.00 0.00 85 995.1
20260506194538 64 218 0.0 0.0 0.00 0.00 0.00 86 995.3
20260506193035 64 199 0.0 0.0 0.00 0.00 0.00 86 995.5
20260506191534 63 186 0.0 0.0 0.00 0.00 0.00 86 995.5
20260506190032 63 202 0.0 0.0 0.00 0.00 0.00 86 995.7
20260506184531 63 240 0.0 0.0 0.00 0.00 0.00 87 995.7
20260506183031 63 218 0.0 0.0 0.00 0.00 0.00 87 995.8
20260506181530 62 182 0.0 0.0 0.00 0.00 0.00 87 995.9
20260506180032 62 206 0.0 0.0 0.00 0.00 0.00 89 996.0
20260506174527 62 195 0.0 0.0 0.00 0.00 0.00 88 996.0
20260506173026 62 203 0.0 0.0 0.00 0.00 0.00 88 996.1
20260506171524 62 192 0.0 0.0 0.00 0.00 0.00 88 996.1
20260506170024 62 184 0.0 0.0 0.00 0.00 0.00 89 996.4
20260506164524 62 166 0.0 0.0 0.00 0.00 0.00 90 996.3
20260506163022 61 161 0.0 0.0 0.00 0.00 0.00 90 996.6
20260506161519 61 184 0.0 0.0 0.00 0.00 0.00 89 996.8
20260506160016 61 197 0.0 0.0 0.00 0.00 0.00 88 997.4
20260506154513 62 212 0.0 0.0 0.00 0.00 0.00 87 997.7
20260506153014 62 179 0.0 0.0 0.00 0.00 0.00 85 997.6
20260506151509 63 195 0.0 0.0 0.00 0.00 0.00 82 997.4
20260506150009 64 181 0.0 0.0 0.00 0.00 0.00 79 997.3
20260506144523 64 212 0.0 0.0 0.00 0.00 0.00 78 997.5
20260506143008 65 185 0.0 0.0 0.00 0.00 0.00 76 997.5
20260506141507 66 170 0.0 0.0 0.00 0.00 0.00 74 997.6
20260506140006 66 199 0.0 0.0 0.00 0.00 0.00 72 997.5
20260506134505 66 160 0.0 0.0 0.00 0.00 0.00 73 997.2
20260506133005 65 200 0.0 0.0 0.00 0.00 0.00 74 997.2
20260506131504 65 153 0.0 0.0 0.00 0.00 0.00 74 997.4
20260506130003 65 170 0.0 0.0 0.00 0.00 0.00 74 997.6
20260506124503 66 195 0.0 0.0 0.00 0.00 0.00 74 997.8
20260506123102 65 218 0.0 0.0 0.00 0.00 0.00 75 997.4
20260506121601 65 175 0.0 0.0 0.00 0.00 0.00 77 997.4
20260506120105 64 175 0.0 0.0 0.00 0.00 0.00 78 997.3
20260506114603 64 169 0.0 0.0 0.00 0.00 0.00 79 997.5
20260506113058 63 181 0.0 0.0 0.00 0.00 0.00 80 997.3
20260506111557 63 178 0.0 0.0 0.00 0.00 0.00 81 997.1
20260506110056 63 195 0.0 0.0 0.00 0.00 0.00 81 997.2
20260506104604 63 157 0.0 0.0 0.00 0.00 0.00 81 997.1
20260506103105 63 159 0.0 0.0 0.00 0.00 0.00 82 997.3
20260506101554 62 189 0.0 0.0 0.00 0.00 0.00 82 997.2
20260506100106 63 160 0.0 0.0 0.00 0.00 0.00 82 997.1
20260506094601 63 184 0.0 0.0 0.00 0.00 0.00 82 997.3
20260506093051 63 182 0.0 0.0 0.00 0.00 0.00 81 997.2
20260506091549 63 173 0.0 0.0 0.00 0.00 0.00 81 997.1
20260506090049 64 163 0.0 0.0 0.00 0.00 0.00 81 997.2
20260506084552 64 184 0.0 0.0 0.00 0.00 0.00 80 997.1
20260506083053 64 157 0.0 0.0 0.00 0.00 0.00 79 997.2
20260506081600 64 155 0.0 0.0 0.00 0.00 0.00 79 997.4
20260506073038 66 166 0.0 0.0 0.00 0.00 0.00 76 997.4
20260506071542 66 186 0.0 0.0 0.00 0.00 0.00 76 997.5
20260506061533 67 179 0.0 0.0 0.00 0.00 0.00 74 997.6
20260506044533 66 184 0.0 0.0 0.00 0.00 0.00 73 998.3
20260506043023 66 169 0.0 0.0 0.00 0.00 0.00 72 998.4
20260506041521 67 181 0.0 0.0 0.00 0.00 0.00 72 998.3
20260506040018 67 172 0.0 0.0 0.00 0.00 0.00 71 998.5
20260506034516 67 177 0.0 0.0 0.00 0.00 0.00 70 998.3
20260506033023 67 180 0.0 0.0 0.00 0.00 0.00 69 998.2
20260506031527 67 184 0.0 0.0 0.00 0.00 0.00 69 998.2
20260506030015 68 148 0.0 0.0 0.00 0.00 0.00 68 998.1
20260506024521 68 173 0.0 0.0 0.00 0.00 0.00 66 998.3
20260506023014 69 169 0.0 0.0 0.00 0.00 0.00 64 998.3
20260506021516 70 189 0.0 0.0 0.00 0.00 0.00 62 998.1
20260506020016 71 190 0.0 0.0 0.00 0.00 0.00 60 998.1
20260506014512 71 193 0.0 0.0 0.00 0.00 0.00 58 998.1
20260506013014 72 206 0.0 0.0 0.00 0.00 0.00 56 997.8
20260506011517 73 168 0.0 0.0 0.00 0.00 0.00 54 997.7
20260506010031 73 176 0.0 0.0 0.00 0.00 0.00 53 997.6
20260506004511 74 181 0.0 0.0 0.00 0.00 0.00 52 997.4
20260506003010 74 184 0.0 0.0 0.00 0.00 0.00 51 997.3
20260506001510 75 195 0.0 0.0 0.00 0.00 0.00 49 997.2
20260506000013 75 180 0.0 0.0 0.00 0.00 0.00 49 996.9
20260505234508 76 188 0.0 0.0 0.00 0.00 0.00 49 996.8
20260505233009 76 167 0.0 0.0 0.00 0.00 0.00 49 996.8
20260505231511 77 182 0.0 0.0 0.00 0.00 0.00 48 996.8
20260505230008 77 161 0.0 0.0 0.00 0.00 0.00 47 996.7
20260505224507 78 166 0.0 0.0 0.00 0.00 0.00 47 996.6
20260505223005 78 187 0.0 0.0 0.00 0.00 0.00 45 996.5
20260505221507 79 189 0.0 0.0 0.00 0.00 0.00 42 996.7
20260505220006 79 203 0.0 0.0 0.00 0.00 0.00 41 996.5
20260505214505 80 184 0.0 0.0 0.00 0.00 0.00 40 996.5
20260505213008 80 188 0.0 0.0 0.00 0.00 0.00 39 996.4
20260505211503 79 174 0.0 0.0 0.00 0.00 0.00 39 996.5
20260505210002 80 188 0.0 0.0 0.00 0.00 0.00 39 996.5
20260505204501 80 178 0.0 0.0 0.00 0.00 0.00 40 996.3
20260505203100 80 175 0.0 0.0 0.00 0.00 0.00 38 996.5